EUTELSAT 5 WEST B

Last updated on Fri Apr 18 2025 00:02:42 GMT+0000 (Coordinated Universal Time)

1 44624U 19067A 25107.39015189 -.00000032 00000+0 00000+0 0 9998 2 44624 0.0758 33.4354 0003160 357.7829 310.0039 1.00271501 20167
UTC large
Height (km)
Speed (km/s)
/
Latitude / Longitude
Inclination (degrees)
Orbital Period (minutes)
Azimuth
Elevation
Range (km)
Doppler Factor

Next 0 passes for location: London (51.5072 / 0.1276)

Sorry there are no passes over London.